    Orbital elements:
    2013 CT36                                                Earth MOID = 0.0680 AU
    Epoch 2013 Apr. 18.0 TT = JDT 2456400.5                 MPC
    M  34.35882              (2000.0)            P               Q
    n   0.26337102     Peri.   38.82412     +0.86059933     -0.50903615
    a   2.4104089      Node   351.73015     +0.43547499     +0.75165057
    e   0.8138904      Incl.    6.32363     +0.26406501     +0.41940865
    P   3.74           H   19.2           G   0.15           U   9
    Residuals in seconds of arc
    130207 703  0.1-  0.4+    130208 B75  0.1-  0.0     130208 C44  0.1+  0.3-
    130207 703  0.5+  0.3+    130208 203  0.2-  0.2+    130208 C47  0.2+  0.3-
    130207 703  0.6-  0.2+    130208 203  0.2-  0.2+    130208 C44  0.2-  0.2+
    130207 703  0.5+  0.0     130208 204  0.1+  0.0     130208 C44  0.1+  0.3-
    130207 H06  0.8+  0.3-    130208 204  0.2+  0.0     130208 C47  0.1-  0.4-
    130207 H06  0.1-  0.3+    130208 204  0.4+  0.1+    130208 C44  0.2+  0.0
    130207 H06  0.6+  0.0     130208 711  0.1+  0.1-    130208 C47  0.2+  0.2-
    130207 H06  0.3+  0.1+    130208 711  0.2+  0.2-    130208 958  0.5-  0.0
    130207 H06  0.2+  0.1-    130208 711  0.1+  0.2-    130209 958  0.5-  0.3+
    130207 H06  0.4-  0.1-    130208 448  0.0   0.1-    130209 958  0.0   0.2+
    130207 703  0.4-  0.7+    130208 448  0.1-  0.0     130209 I93  0.4+  0.0
    130207 H06  0.2-  0.3+    130208 448  0.4+  0.0     130209 I93  0.0   0.1+
    130207 H06  0.1-  0.0     130208 G96  0.1+  0.0     130209 I93  0.0   0.1+
    130207 H06  0.2-  0.0     130208 G96  0.1+  0.0     130209 900  0.1+  0.2-
    130207 703  0.4-  0.4+    130208 G96  0.1+  0.2+    130209 900  0.1+  0.2-
    130207 703  0.4-  0.1-    130208 448  0.3+  0.1+    130209 900  0.1+  0.1-
    130207 C77  0.1+  0.4+    130208 448  0.2+  0.0     130210 954  0.1+  0.3-
    130207 C77  0.5-  0.3+    130208 C48  0.5-  1.0+    130210 954  0.3+  0.1-
    130207 C77  0.8+  0.1-    130208 C48  0.5-  0.3+    130210 954  0.2+  0.3-
    130207 C77  0.9+  0.0     130208 C48  0.3-  0.4+    130210 V05  2.2-  2.3+
    130207 C77  0.3-  0.2+    130208 C48  0.1-  0.5+    130210 V05  1.2-  0.5-
    130208 B75  1.3+  0.4-    130208 C48  0.0   0.4+    130210 V05  0.2-  0.1-
    130208 B75  0.1+  1.5-    130208 C48  0.3+  0.3+    130210 V05  0.4+  0.4-
    130208 B75  0.0   1.7-    130208 C47  0.2-  0.1-    130210 V05  1.6+  0.3-
    130208 B75  2.8-  1.8-    130208 C47  0.1+  0.6+    130210 V05  1.2+  0.2-
    
    Ephemeris:
    2013 CT36                a,e,i = 2.41, 0.81, 6                   q = 0.4486
    Date    TT    R. A. (2000) Decl.     Delta      r     Elong.  Phase     V
    2013 01 11    16 24 17.0 -05 11 05   0.2501  0.8363    47.8   119.4    20.6
    ...
    2013 01 26    13 42 53.4 +07 17 03   0.2301  1.0649   104.3    63.6    18.4
    ...
    2013 02 03    12 22 23.0 +12 23 52   0.2660  1.1817   132.5    38.0    18.2
    ...
    2013 02 09    11 34 24.5 +14 41 45   0.3120  1.2666   150.1    22.9    18.3
    2013 02 10    11 27 32.5 +14 58 09   0.3210  1.2805   152.7    20.7    18.3
    2013 02 11    11 20 59.3 +15 12 57   0.3304  1.2943   155.2    18.7    18.3
    ...
    2013 02 17    10 47 46.7 +16 14 09   0.3939  1.3760   168.1     8.5    18.5
    ...
    2013 02 25    10 17 06.4 +16 46 04   0.4951  1.4814   171.5     5.6    19.0
    ...
    2013 03 12    09 47 10.1 +16 36 13   0.7252  1.6686   151.9    16.3    20.5
    
    A. U. Tomatic                (C) Copyright 2013 MPC           M.P.E.C. 2013-C44
    

    Read MPEC 2013-C43 Read MPEC 2013-C45


    MPEC number:

    Enter an MPEC number in one of the following forms:

    • 1997-B01 (the full form)
    • J97B01 (the packed version of the full form)
    • B01 (the abbreviated form)